Powrót do katalogu

STARLINK-1557

AktywnyŁącznośćVLEO
NORAD 46034·PAYLOAD·🇺🇸 United States

Wystrzelony Aug 7, 2020 z Cape Canaveral Space Force Station

Loading…

Następne Przeloty (najbliższe 24 godziny)

TLE

ŚwieżeSource: CelesTrak SupGP

Epoka: Sep 15, 2026, 00:58 UTC

1 46034C 20055H   26258.04076389  .00046202  00000+0  14854-2 0  2584
2 46034  53.1586 326.2863 0001052 100.3199  58.7261 15.31687459    17

Śledź STARLINK-1557 w czasie rzeczywistym z AllMySat

Download on the App Store